Regional Weather Roundup
Issued by NWS

Home | Current Version | Previous Version | Text Only | Print | Product List | Glossary Off
Versions: 1 2 3 4 5 6 7 8 9 10 11 12 13 14 15 16 17 18 19 20 21 22 23 24 25 26 27 28 29 30 31 32 33 34 35 36 37 38 39 40 41 42 43 44 45 46 47 48 49 50

000
ASUS43 KBIS 270510
RWRND
NORTH DAKOTA REGIONAL WEATHER ROUNDUP
NATIONAL WEATHER SERVICE EASTERN NORTH DAKOTA/GRAND FORKS ND
1200 AM CDT TUE JUN 27 2017

  NOTE: "FAIR" INDICATES FEW OR NO CLOUDS BELOW 12,000 FEET WITH NO
  SIGNIFICANT WEATHER AND/OR OBSTRUCTIONS TO VISIBILITY.

NDZ001>003-009>011-017-270600-
...NORTHWEST NORTH DAKOTA...

CITY           SKY/WX    TMP DP  RH WIND       PRES   REMARKS
WILLISTON      FAIR      71  43  36 S9        29.84F
MINOT          FAIR      59  45  59 SE6       29.92S
MINOT AFB      FAIR      58  45  63 SE9       29.90F
$$

NDZ018>021-031>035-040>046-270600-
...SOUTHWEST NORTH DAKOTA...

CITY           SKY/WX    TMP DP  RH WIND       PRES   REMARKS
BISMARCK       FAIR      58  42  55 SE9       29.99F
DICKINSON      FAIR      64  36  35 S21G31    29.91F
GARRISON         N/A     63  45  51 S13       29.94F
HETTINGER      FAIR      63  39  41 SE15G23   29.98F
$$

NDZ004>008-012>016-024-026-027-054-270600-
...NORTHEAST NORTH DAKOTA...

CITY           SKY/WX    TMP DP  RH WIND       PRES   REMARKS
GRAND FORKS    FAIR      54  44  69 SE3       30.01F
GRAND FORKS AF FAIR      50  44  81 S5        30.02F
DEVILS LAKE    FAIR      59  45  59 S7        30.00F
$$

NDZ022-023-025-028>030-036>039-047>053-270600-
...SOUTHEAST NORTH DAKOTA...

CITY           SKY/WX    TMP DP  RH WIND       PRES   REMARKS
JAMESTOWN      FAIR      53  40  61 S7        30.03F
FARGO          FAIR      59  39  47 S6        30.05F
WAHPETON       FAIR      52  39  62 S6        30.09S
$$



USA.gov is the U.S. government's official web portal to all federal, state and local government web resources and services.